DECAYED

NOAA 17 DEB, 48732 (Decayed)

Orbit data source: Space-Track

NOAA 17 DEB, 48732 was space debris in SSO originally from a launch on Mon, 24 Jun 2002 UTC launched from the Air Force Western Test Range (AFWTR). Debris objects in space refer to the collection of defunct objects orbiting the Earth. Examples of debris include non-operational satellites, rocket bodies, and fragments generated from explosions, collisions, or faulty payload assembly.

Not visible in the next 10 days
Identifier
48732, 2002-032BR
Orbit
Decayed
Country
Flag of USUS
Related business
Manufacturer
Unknown
Mission
Decayed spacecraft
Bus & Motor
Unknown
Mass
Unknown
Launch date (UTC)
2002-06-24 (24 years ago)
Launch vehicle
Unknown
Launch site
Air Force Western Test Range (AFWTR)
Object type
Payload
Rocket body
Debris
Shape & HBR
Unknown shape, 0.1 m
Radar Cross Section
Small (<0.1 m²)

Expand to show TLE details & history
Last TLE update: 7 months ago

TLE from 7 months ago
0 NOAA 17 DEB
1 48732U 02032BR  25315.07601097  .01103274  00000-0  15478-1 0  9991
2 48732  98.6697   0.3893 0005438 201.3553 158.7471 15.53942883246770
Epoch: 2025-11-11T01:49Z
TLE epoch observation values (Epoch: 2025-11-11T01:49:27.347Z)
Latitude
0.00001°
Longitude
-77.44241°
Altitude
411.763 km
Speed
7.662 km/s
True Right ascension
00h 01m 33s
True Declination
0° 00' 00"
Sunlit
Object was in full shadow at epoch
Visualization orbit readout
Latitude
Unknown
Longitude
Unknown
Altitude
Unknown
Speed
Unknown
Apparent Right ascension
Unknown
Apparent Declination
Unknown
Sunlit
N/A
Visualization observer readout
Local Sidereal Time
21:35:20
Azimuth
Unknown
Elevation
Unknown
Doppler factor
Unknown
Orbital elements
Apogee altitude
405.895 km
Perigee altitude
398.52 km
Semi-major axis
6,780.344 km
Eccentricity
0.00054
Inclination
98.6697°
RAAN
0.3893°
Arg. of periapsis
201.3553°
True anomaly
158.76967°
Mean anomaly
158.7471°
Eccentric anomaly
158.75839°
Mean motion
3.88746 °/min
Orbital period
92.61 mins
BSTAR
0.015478
Loading maneuver chart data...
Computing Atmospheric mass density...

Documentation

Showing up to 5 results
|